Starlink 30567

operational
NORAD ID: 58067 Int'l Des: 2023-158 Owner: SPXS Country: US Constellation: starlink
LEOCIRCULAR

Starlink 30567について

説明を読み込み中...

リアルタイム位置

3D地球を読み込み中...

次回通過

高度履歴

Altitude vs Time

uPlot chart will show altitude changes over time

軌道要素

1 58067U 23158S 25260.02844237 .00000298 00000-0 37112-4 0 9997
2 58067 43.0027 254.3325 0001030 278.8372 81.2353 15.02528364107409
Epoch: Sep 17, 2025 • Age: 21 hours

現在のステータス

高度 558.8 km
速度 7.58 km/s
衛星直下点 -0.84°S, 69.6°W
打ち上げ日 Oct 13, 2023
運用期間 1.9 years
タイプ internet

技術仕様

分類 Payload
質量 730.00 kg
乾燥質量 700.00 kg
総質量 730.00 kg
長さ 0.30 m
直径 4.10 m
スパン 29.00 m
形状 Box + pan
製造者 SPXS
バスタイプ Starlink V2M
フェーズステータス In Orbit
所有者/国 SPXS/US

大規模コンステレーション

Loading constellations...